This demonstration page uses our WeatherBlox Daily Observations layout. Learn more.

Left ArrowRight Arrow

Hourly Observations for February 5, 2016

Temp ( °F °C ) Dew Point ( °F °C ) Humidity (%) Winds ( mph kmh ) Pressure ( in mb ) Visibility ( mi km ) Precip ( " mm )
12:54 am 00:54 Clear 13 -10.6 10 -12.2 88 88 Calm 30.42 1030 8 13 0.00 0.00
1:54 am 01:54 Clear 11 -11.7 8 -13.3 88 88 Calm 30.41 1030 9 14 0.00 0.00
2:54 am 02:54 Clear 12 -11.1 9 -12.8 87 87 Calm 30.40 1029 9 14 0.00 0.00
3:54 am 03:54 Clear 14 -10 11 -11.7 88 88 Calm 30.40 1029 8 13 0.00 0.00
4:54 am 04:54 Clear 14 -10 9 -12.8 80 80 Calm 30.40 1029 9 14 0.00 0.00
5:54 am 05:54 Mostly Cloudy 15 -9.4 13 -10.6 91 91 S 5 7 30.41 1030 8 13 0.00 0.00
6:54 am 06:54 Cloudy 17 -8.3 14 -10 88 88 S 5 7 30.42 1030 8 13 0.00 0.00
7:54 am 07:54 Cloudy 20 -6.7 16 -8.9 85 85 SSE 5 7 30.42 1030 7 11 0.00 0.00
8:45 am 08:45 Cloudy with Light Snow 23 -5 19 -7.2 85 85 S 7 11 30.45 1031 2 3 0.00 0.03
8:54 am 08:54 Cloudy with Light Snow 23 -5 19 -7.2 85 85 S 9 15 30.41 1030 1 2 0.00 0.03
9:16 am 09:16 Cloudy with Light Snow 25 -4 21 -6 86 86 S 10 17 30.42 1030 1 1 0.00 0.00
9:24 am 09:24 Cloudy with Light Snow 25 -4 21 -6 86 86 S 10 17 30.42 1030 1 2 0.00 0.00
9:32 am 09:32 Cloudy with Light Snow 25 -4 21 -6 86 86 S 12 19 30.39 1029 1 1 0.00 0.00
9:44 am 09:44 Cloudy with Light Snow 26 -3.3 22 -5.6 84 84 S 13 20 30.39 1029 1 2 0.01 0.25
9:54 am 09:54 Cloudy with Light Snow 26 -3.3 23 -5 88 88 S 13 20 30.40 1029 1 1 0.01 0.25
10:04 am 10:04 Cloudy with Light Snow 27 -3 23 -5 86 86 S 13 20 30.39 1029 1 2 0.00 0.00
10:40 am 10:40 Cloudy with Light Snow 27 -3 23 -5 86 86 S 13 20 30.39 1029 1 2 0.00 0.00
10:50 am 10:50 Cloudy with Light Snow 27 -3 23 -5 86 86 S 13 20 30.39 1029 1 2 0.01 0.25
10:54 am 10:54 Cloudy with Light Snow 27 -2.8 24 -4.4 89 89 S 12 19 30.39 1029 1 2 0.01 0.25
11:16 am 11:16 Cloudy with Light Snow 27 -3 25 -4 93 93 S 13 20 30.39 1029 1 1 0.00 0.00
11:38 am 11:38 Cloudy with Light Snow 28 -2 25 -4 86 86 SSW 9 15 30.39 1029 1 1 0.00 0.00
11:45 am 11:45 Cloudy with Light Snow 28 -2 25 -4 86 86 SSW 12 19 30.39 1029 1 1 0.00 0.00
11:54 am 11:54 Cloudy with Light Snow 28 -2.2 25 -3.9 88 88 S 10 17 30.37 1029 1 2 0.02 0.51
12:29 pm 12:29 Cloudy with Light Snow 29 -1.7 26 -3.3 89 89 S 8 13 30.36 1028 2 3 0.01 0.25
12:44 pm 12:44 Cloudy with Light Snow 28 -2 25 -4 86 86 S 10 17 30.36 1028 4 6 0.00 0.00
12:54 pm 12:54 Cloudy with Light Snow 30 -1.1 26 -3.3 85 85 S 10 17 30.33 1027 3 5 0.01 0.25
1:08 pm 13:08 Cloudy with Light Snow 30 -1 27 -3 86 86 S 8 13 30.36 1028 2 3 0.00 0.00
1:54 pm 13:54 Cloudy with Light Snow 31 -0.6 28 -2.2 89 89 S 8 13 30.31 1026 2 3 0.00 0.03
2:04 pm 14:04 Cloudy with Light Snow 30 -1 28 -2 93 93 S 8 13 30.33 1027 2 3 0.00 0.00
2:14 pm 14:14 Cloudy with Light Snow 30 -1 28 -2 93 93 S 5 7 30.33 1027 2 3 0.00 0.00
2:24 pm 14:24 Cloudy with Mist and Fog 30 -1 28 -2 93 93 S 6 9 30.33 1027 5 8 0.00 0.00
2:37 pm 14:37 Cloudy with Mist and Fog 32 0 28 -2 87 87 SSW 8 13 30.33 1027 6 10 0.00 0.00
2:54 pm 14:54 Cloudy 32 0 29 -1.7 88 88 SSW 7 11 30.30 1026 7 11 0.01 0.25
3:11 pm 15:11 Cloudy 32 0 29 -1.7 88 88 S 8 13 30.33 1027 8 13 0.00 0.00
3:21 pm 15:21 Mostly Cloudy 33 0.6 29 -1.7 85 85 SSW 8 13 30.30 1026 8 13 0.00 0.00
3:54 pm 15:54 Sunny 34 1.1 29 -1.7 82 82 SSW 7 11 30.29 1026 9 14 0.00 0.00
4:54 pm 16:54 Cloudy 34 1.1 29 -1.7 82 82 SW 8 13 30.29 1026 10 16 0.00 0.00
5:54 pm 17:54 Cloudy 34 1.1 28 -2.2 79 79 SW 7 11 30.30 1026 10 16 0.00 0.00
6:54 pm 18:54 Cloudy with Light Snow 33 0.6 28 -2.2 82 82 WSW 5 7 30.30 1026 6 10 0.00 0.03
7:54 pm 19:54 Cloudy 31 -0.6 29 -1.7 92 92 S 5 7 30.29 1026 9 14 0.00 0.03
8:54 pm 20:54 Cloudy 30 -1.1 27 -2.8 88 88 Calm 30.29 1026 7 11 0.00 0.00
9:54 pm 21:54 Mostly Cloudy 32 0 28 -2.2 85 85 Calm 30.30 1026 7 11 0.00 0.00
10:54 pm 22:54 Cloudy with Mist and Fog 30 -1.1 28 -2.2 92 92 Calm 30.31 1026 6 10 0.00 0.00
11:17 pm 23:17 Cloudy 32 0 29 -1.7 88 88 NNW 3 6 30.36 1028 8 13 0.00 0.00
11:54 pm 23:54 Cloudy 34 1.1 31 -0.6 89 89 NNW 5 7 30.32 1027 10 16 0.00 0.00

Powered by AerisWeather